Location: Unspecified
(0.0000°N, 0.0000°E)
Time: 07:57:20
(UTC+00:00)

Vanguard 2 Rocket - All Passes

Search period start: 08 February 2023 00:00
Search period end: 18 February 2023 00:00
Orbit: 556 x 3318 km, 32.9° (Epoch: 07 February)

Date Brightness Start Highest point End Pass type
(mag) Time Alt. Az. Time Alt. Az. Time Alt. Az.
08 Feb - 00:32:55 10° SSW 00:47:47 25° SSE 01:01:37 10° ESE visible
08 Feb - 02:50:18 10° SW 03:09:15 50° SSE 03:22:19 10° E visible
08 Feb - 05:09:26 10° WSW 05:26:39 71° NW 05:36:29 10° NE visible
08 Feb - 07:34:02 10° WNW 07:40:58 18° NW 07:46:06 10° N daylight
08 Feb - 14:29:03 10° NNE 14:30:23 11° NE 14:31:50 10° ENE daylight
08 Feb - 16:37:20 10° NW 16:42:57 90° SW 16:53:01 10° SE daylight
08 Feb - 18:51:22 10° WSW 18:58:42 29° SSW 19:10:09 10° SSE visible
08 Feb - 21:10:37 10° SW 21:18:55 17° S 21:29:15 10° SSE visible
08 Feb - 23:30:24 10° SSW 23:43:01 20° SSE 23:56:11 10° SE visible
09 Feb - 01:47:28 10° SW 02:05:45 39° SSE 02:20:09 10° E visible
09 Feb - 04:05:31 10° SW 04:24:43 86° SE 04:36:19 10° ENE visible
09 Feb - 06:27:45 10° W 06:40:01 32° NW 06:47:47 10° NNE daylight
09 Feb - 15:37:55 10° NW 15:42:38 50° NE 15:50:18 10° ESE daylight
09 Feb - 17:50:29 10° W 17:56:50 37° SSW 18:07:28 10° SE daylight
09 Feb - 20:08:01 10° SW 20:15:16 18° S 20:24:50 10° SSE visible
09 Feb - 22:28:05 10° SSW 22:38:11 17° S 22:49:38 10° SE visible
10 Feb - 00:45:02 10° SSW 01:01:44 31° SSE 01:16:49 10° E visible
10 Feb - 03:02:06 10° SW 03:22:05 67° SSE 03:35:31 10° ENE visible
10 Feb - 05:22:28 10° WSW 05:38:46 50° NW 05:48:32 10° NE visible
10 Feb - 07:52:12 10° NW 07:53:35 10° NW 07:54:53 10° NNW daylight
10 Feb - 14:39:05 10° NNW 14:42:39 23° NE 14:47:22 10° E daylight
10 Feb - 16:50:07 10° WNW 16:55:37 51° SSW 17:05:06 10° SE daylight
10 Feb - 19:05:57 10° WSW 19:12:23 20° SSW 19:21:23 10° SSE visible
10 Feb - 21:25:53 10° SSW 21:33:37 15° S 21:42:49 10° SE visible
10 Feb - 23:42:59 10° SSW 23:57:21 25° SSE 00:12:01 10° ESE visible
11 Feb - 01:59:12 10° SW 02:18:50 52° SSE 02:33:53 10° ENE visible
11 Feb - 04:17:56 10° WSW 04:36:58 72° NW 04:48:40 10° NE visible
11 Feb - 06:42:41 10° W 06:52:17 21° NW 06:59:04 10° N daylight
11 Feb - 15:50:12 10° WNW 15:54:59 84° SSW 16:02:57 10° SE daylight
11 Feb - 18:04:27 10° WSW 18:10:12 23° SSW 18:18:43 10° SSE daylight
11 Feb - 20:23:42 10° SSW 20:29:38 14° S 20:36:50 10° SSE visible
11 Feb - 22:41:18 10° SSW 22:52:47 20° SSE 23:05:41 10° ESE visible
12 Feb - 00:56:50 10° SW 01:15:07 41° SSE 01:31:14 10° E visible
12 Feb - 03:14:08 10° SW 03:34:32 87° SE 03:48:10 10° NE visible
12 Feb - 05:36:15 10° W 05:50:51 35° NW 06:00:15 10° NNE visible
12 Feb - 14:50:43 10° NW 14:54:50 48° NE 15:00:52 10° ESE daylight
12 Feb - 17:03:31 10° W 17:08:39 29° SSW 17:16:38 10° SSE daylight
12 Feb - 19:21:31 10° SW 19:26:23 14° S 19:32:23 10° SSE visible
12 Feb - 21:39:59 10° SSW 21:48:19 16° SSE 21:58:06 10° SE visible
12 Feb - 23:54:58 10° SSW 00:11:04 32° SSE 00:27:16 10° E visible
13 Feb - 02:11:01 10° SW 02:31:29 69° SE 02:46:58 10° ENE visible
13 Feb - 04:30:55 10° WSW 04:49:02 52° NW 05:00:39 10° NE visible
13 Feb - 06:59:12 10° WNW 07:04:56 14° NW 07:09:36 10° N daylight
13 Feb - 13:51:46 10° NNW 13:54:51 21° NE 13:58:31 10° E daylight
13 Feb - 16:03:03 10° W 16:07:39 42° SSW 16:14:56 10° SE daylight
13 Feb - 18:19:30 10° SW 18:23:51 15° SSW 18:29:26 10° SSE daylight
13 Feb - 20:39:02 10° SSW 20:44:11 12° S 20:50:10 10° SSE visible
13 Feb - 22:53:36 10° SSW 23:06:53 25° SSE 23:21:43 10° ESE visible
14 Feb - 01:08:34 10° SW 01:27:58 54° SSE 01:44:53 10° ENE visible
14 Feb - 03:26:32 10° WSW 03:46:42 72° NW 04:00:26 10° NE visible
14 Feb - 05:51:02 10° W 06:03:10 25° NW 06:11:39 10° NNE visible
14 Feb - 15:03:00 10° WNW 15:07:12 75° SW 15:13:26 10° SE daylight
14 Feb - 17:17:51 10° WSW 17:21:58 17° SSW 17:27:32 10° SSE daylight
14 Feb - 19:38:36 10° S 19:40:38 10° S 19:42:50 10° S visible
14 Feb - 21:52:45 10° SSW 22:02:42 18° SSE 22:14:28 10° ESE visible
15 Feb - 00:06:43 10° SW 00:24:12 42° SSE 00:41:41 10° E visible
15 Feb - 02:23:03 10° SW 02:43:48 88° SE 02:59:33 10° NE visible
15 Feb - 04:44:38 10° W 05:01:09 38° NW 05:12:21 10° NNE visible
15 Feb - 14:03:18 10° NW 14:07:07 48° NE 14:11:59 10° ESE daylight
15 Feb - 16:16:39 10° WSW 16:20:39 22° SSW 16:26:15 10° SSE daylight
15 Feb - 20:52:38 10° S 20:58:41 13° SSE 21:05:46 10° SE visible
15 Feb - 23:05:27 10° SSW 23:20:21 32° SSE 23:37:03 10° E visible
16 Feb - 01:20:22 10° SW 01:40:26 71° SE 01:57:53 10° ENE visible
16 Feb - 03:39:29 10° WSW 03:58:46 54° NW 04:12:21 10° NE visible
16 Feb - 06:07:04 10° WNW 06:15:53 17° NNW 06:22:41 10° N daylight
16 Feb - 13:04:03 10° NNW 13:07:05 21° NE 13:10:17 10° E daylight
16 Feb - 15:15:57 10° W 15:19:51 33° SSW 15:25:18 10° SE daylight
16 Feb - 22:04:45 10° SSW 22:16:31 23° SSE 22:30:44 10° ESE visible
17 Feb - 00:18:25 10° SW 00:36:50 55° SE 00:55:16 10° ENE visible
17 Feb - 02:35:27 10° WSW 02:55:54 72° NW 03:11:43 10° NE visible
17 Feb - 04:59:16 10° W 05:13:33 27° NW 05:23:50 10° NNE visible
17 Feb - 14:15:37 10° WNW 14:19:30 65° SSW 14:24:28 10° SE daylight
17 Feb - 16:31:52 10° SW 16:33:54 12° SSW 16:36:15 10° S daylight
17 Feb - 21:04:47 10° SSW 21:12:49 16° SSE 21:22:37 10° SE visible
